,,,PA_Meas_PMT16A,,PR_Meas_QMR101_102,,RH_Meas_QMH101,,SR_Meas_QMS101,,TA_Meas_QMH101,,GenWind,,GenWind,
date,time,status,PA,status,PR,status,RH,status,SR,status,TA,status,DirAvg,status,SpdAvg,
2012-02-12, 00:00:04,VALID,1004.28,VALID,0,VALID,93.4309,VALID,0,VALID,24.422,VALID,58,VALID,0,
2012-02-12, 00:01:04,VALID,1004.24,VALID,0,VALID,93.5301,VALID,0,VALID,24.4628,VALID,58,VALID,0.194531,
2012-02-12, 00:02:04,VALID,1004.22,VALID,0,VALID,93.5453,VALID,0,VALID,24.4414,VALID,58,VALID,0,
2012-02-12, 00:03:04,VALID,1004.17,VALID,0,VALID,93.6674,VALID,0,VALID,24.4609,VALID,58,VALID,0.317578,
2012-02-12, 00:04:04,VALID,1004.22,VALID,0,VALID,93.6064,VALID,0,VALID,24.5212,VALID,56,VALID,0.671484,
2012-02-12, 00:05:04,VALID,1004.15,VALID,0,VALID,93.5453,VALID,0,VALID,24.5017,VALID,56,VALID,0,
2012-02-12, 00:06:04,VALID,1004.16,VALID,0,VALID,93.5453,VALID,0,VALID,24.5212,VALID,56,VALID,0.360547,
2012-02-12, 00:07:04,VALID,1004.13,VALID,0,VALID,93.5377,VALID,0,VALID,24.5406,VALID,56,VALID,0.282422,
2012-02-12, 00:08:04,VALID,1004.14,VALID,0,VALID,93.553,VALID,0,VALID,24.5406,VALID,56,VALID,0.40625,
2012-02-12, 00:09:04,VALID,1004.11,VALID,0,VALID,93.4919,VALID,0,VALID,24.5406,VALID,56,VALID,0.420312,
2012-02-12, 00:10:04,VALID,1004.1,VALID,0,VALID,93.4767,VALID,0,VALID,24.5212,VALID,56,VALID,0.316797,
2012-02-12, 00:11:04,VALID,1004.08,VALID,0,VALID,93.469,VALID,0,VALID,24.5212,VALID,56,VALID,0.386328,
2012-02-12, 00:12:04,VALID,1004.06,VALID,0,VALID,93.5377,VALID,0,VALID,24.5212,VALID,56,VALID,0.507813,
2012-02-12, 00:13:04,VALID,1004.03,VALID,0,VALID,93.5606,VALID,0,VALID,24.5406,VALID,56,VALID,0.165234,
2012-02-12, 00:14:04,VALID,1004.02,VALID,0,VALID,93.5911,VALID,0,VALID,24.5406,VALID,56,VALID,0.0441406,
2012-02-12, 00:15:04,VALID,1004.03,VALID,0,VALID,93.6369,VALID,0,VALID,24.5388,VALID,56,VALID,0.00078125,
2012-02-12, 00:16:04,VALID,1004.01,VALID,0,VALID,93.7361,VALID,0,VALID,24.5796,VALID,56,VALID,0.180078,
2012-02-12, 00:17:04,VALID,1004,VALID,0,VALID,93.6674,VALID,0,VALID,24.5777,VALID,56,VALID,0.135937,
2012-02-12, 00:18:04,VALID,1004,VALID,0,VALID,93.5987,VALID,0,VALID,24.5972,VALID,56,VALID,0,
2012-02-12, 00:19:04,VALID,1004,VALID,0,VALID,93.6979,VALID,0,VALID,24.6361,VALID,56,VALID,0,
2012-02-12, 00:20:04,VALID,1003.98,VALID,0,VALID,93.7361,VALID,0,VALID,24.6556,VALID,56,VALID,0.116406,
2012-02-12, 00:21:04,VALID,1003.98,VALID,0,VALID,93.5911,VALID,0,VALID,24.6556,VALID,56,VALID,0.362109,
2012-02-12, 00:22:04,VALID,1003.99,VALID,0,VALID,93.4767,VALID,0,VALID,24.6769,VALID,56,VALID,0.126953,
2012-02-12, 00:23:04,VALID,1003.98,VALID,0,VALID,93.3699,VALID,0,VALID,24.6361,VALID,56,VALID,0.253125,
2012-02-12, 00:24:04,VALID,1004,VALID,0,VALID,93.3928,VALID,0,VALID,24.6166,VALID,56,VALID,0.0878906,
2012-02-12, 00:25:04,VALID,1004.01,VALID,0,VALID,93.4919,VALID,0,VALID,24.6361,VALID,56,VALID,0.455859,
2012-02-12, 00:26:04,VALID,1003.99,VALID,0,VALID,93.4919,VALID,0,VALID,24.6574,VALID,118,VALID,0.549609,
2012-02-12, 00:27:04,VALID,1003.97,VALID,0,VALID,93.5758,VALID,0,VALID,24.6769,VALID,118,VALID,0.398828,
2012-02-12, 00:28:04,VALID,1003.95,VALID,0,VALID,93.5148,VALID,0,VALID,24.6361,VALID,118,VALID,0.441016,
2012-02-12, 00:29:04,VALID,1003.93,VALID,0,VALID,93.5987,VALID,0,VALID,24.675,VALID,118,VALID,0.351953,
2012-02-12, 00:30:04,VALID,1003.91,VALID,0,VALID,93.6674,VALID,0,VALID,24.675,VALID,118,VALID,0.214062,
2012-02-12, 00:31:04,VALID,1003.92,VALID,0,VALID,93.5835,VALID,0,VALID,24.675,VALID,118,VALID,0.175,
2012-02-12, 00:32:04,VALID,1003.9,VALID,0,VALID,93.5606,VALID,0,VALID,24.6964,VALID,118,VALID,0,
2012-02-12, 00:33:04,VALID,1003.87,VALID,0,VALID,93.5682,VALID,0,VALID,24.6769,VALID,118,VALID,0,
2012-02-12, 00:34:04,VALID,1003.84,VALID,0,VALID,93.614,VALID,0,VALID,24.6964,VALID,118,VALID,0,
2012-02-12, 00:35:04,VALID,1003.81,VALID,0,VALID,93.6979,VALID,0,VALID,24.7159,VALID,118,VALID,0,
2012-02-12, 00:36:05,VALID,1003.81,VALID,0,VALID,93.6979,VALID,0,VALID,24.6945,VALID,118,VALID,0.138672,
2012-02-12, 00:37:05,VALID,1003.79,VALID,0,VALID,93.6674,VALID,0,VALID,24.6964,VALID,118,VALID,0.176953,
2012-02-12, 00:38:05,VALID,1003.79,VALID,0,VALID,93.6064,VALID,0,VALID,24.6964,VALID,118,VALID,0.372656,
2012-02-12, 00:39:05,VALID,1003.81,VALID,0,VALID,93.614,VALID,0.0815089,VALID,24.6945,VALID,118,VALID,0.255469,
2012-02-12, 00:40:05,VALID,1003.81,VALID,0,VALID,93.6064,VALID,0,VALID,24.7159,VALID,118,VALID,0.0535156,
2012-02-12, 00:41:05,VALID,1003.77,VALID,0,VALID,93.5224,VALID,0,VALID,24.6964,VALID,118,VALID,0.0289063,
2012-02-12, 00:42:05,VALID,1003.76,VALID,0,VALID,93.4919,VALID,0,VALID,24.675,VALID,118,VALID,0,
2012-02-12, 00:43:05,VALID,1003.78,VALID,0,VALID,93.4996,VALID,0.0815089,VALID,24.675,VALID,118,VALID,0,
2012-02-12, 00:44:05,VALID,1003.75,VALID,0,VALID,93.553,VALID,0,VALID,24.6945,VALID,118,VALID,0,
2012-02-12, 00:45:05,VALID,1003.76,VALID,0,VALID,93.5987,VALID,0,VALID,24.714,VALID,118,VALID,0,
2012-02-12, 00:46:05,VALID,1003.74,VALID,0,VALID,93.6598,VALID,0,VALID,24.714,VALID,118,VALID,0.221875,
2012-02-12, 00:47:05,VALID,1003.74,VALID,0,VALID,93.6598,VALID,0,VALID,24.7335,VALID,118,VALID,0.125,
2012-02-12, 00:48:05,VALID,1003.75,VALID,0,VALID,93.6674,VALID,0,VALID,24.7335,VALID,118,VALID,0,
2012-02-12, 00:49:05,VALID,1003.74,VALID,0,VALID,93.6598,VALID,0,VALID,24.7529,VALID,118,VALID,0,
2012-02-12, 00:50:05,VALID,1003.74,VALID,0,VALID,93.6521,VALID,0,VALID,24.7529,VALID,118,VALID,0,
2012-02-12, 00:51:05,VALID,1003.74,VALID,0,VALID,93.6369,VALID,0,VALID,24.7335,VALID,118,VALID,0,
2012-02-12, 00:52:05,VALID,1003.75,VALID,0,VALID,93.6216,VALID,0,VALID,24.7743,VALID,118,VALID,0,
2012-02-12, 00:53:05,VALID,1003.71,VALID,0,VALID,93.5835,VALID,0,VALID,24.7353,VALID,118,VALID,0,
2012-02-12, 00:54:05,VALID,1003.72,VALID,0,VALID,93.6064,VALID,0,VALID,24.7353,VALID,118,VALID,0,
2012-02-12, 00:55:05,VALID,1003.7,VALID,0,VALID,93.6216,VALID,0,VALID,24.7353,VALID,118,VALID,0.241406,
2012-02-12, 00:56:05,VALID,1003.69,VALID,0,VALID,93.5987,VALID,0,VALID,24.714,VALID,118,VALID,0.146094,
2012-02-12, 00:57:05,VALID,1003.69,VALID,0,VALID,93.6292,VALID,0,VALID,24.7353,VALID,118,VALID,0.258203,
2012-02-12, 00:58:05,VALID,1003.7,VALID,0,VALID,93.6521,VALID,0,VALID,24.7159,VALID,118,VALID,0.4125,
2012-02-12, 00:59:05,VALID,1003.66,VALID,0,VALID,93.6369,VALID,0,VALID,24.675,VALID,118,VALID,0.419922,
2012-02-12, 01:00:05,VALID,1003.64,VALID,0,VALID,93.6445,VALID,0,VALID,24.6964,VALID,118,VALID,0.269531,
2012-02-12, 01:01:05,VALID,1003.64,VALID,0,VALID,93.6369,VALID,0,VALID,24.6556,VALID,118,VALID,0.309766,
2012-02-12, 01:02:05,VALID,1003.61,VALID,0,VALID,93.6292,VALID,0,VALID,24.6556,VALID,118,VALID,0.467187,
2012-02-12, 01:03:05,VALID,1003.6,VALID,0,VALID,93.6369,VALID,0,VALID,24.6574,VALID,116,VALID,0.466406,
2012-02-12, 01:04:05,VALID,1003.57,VALID,0,VALID,93.675,VALID,0,VALID,24.6769,VALID,110,VALID,0.169922,
2012-02-12, 01:05:05,VALID,1003.54,VALID,0,VALID,93.6369,VALID,0,VALID,24.6574,VALID,110,VALID,0.0113281,
2012-02-12, 01:06:05,VALID,1003.51,VALID,0,VALID,93.6292,VALID,0,VALID,24.638,VALID,110,VALID,0.259766,
2012-02-12, 01:07:05,VALID,1003.49,VALID,0,VALID,93.6674,VALID,0,VALID,24.5972,VALID,110,VALID,0.151953,
2012-02-12, 01:08:05,VALID,1003.52,VALID,0,VALID,93.6674,VALID,0,VALID,24.5777,VALID,110,VALID,0.0171875,
2012-02-12, 01:09:05,VALID,1003.49,VALID,0,VALID,93.6674,VALID,0,VALID,24.599,VALID,110,VALID,0,
2012-02-12, 01:10:05,VALID,1003.49,VALID,0,VALID,93.6674,VALID,0,VALID,24.5582,VALID,110,VALID,0,
2012-02-12, 01:11:05,VALID,1003.51,VALID,0,VALID,93.6979,VALID,0,VALID,24.5601,VALID,110,VALID,0,
2012-02-12, 01:12:05,VALID,1003.5,VALID,0,VALID,93.7284,VALID,0,VALID,24.5796,VALID,110,VALID,0,
2012-02-12, 01:13:05,VALID,1003.51,VALID,0,VALID,93.7284,VALID,0,VALID,24.5388,VALID,110,VALID,0.0339844,
2012-02-12, 01:14:05,VALID,1003.51,VALID,0,VALID,93.7513,VALID,0,VALID,24.5388,VALID,110,VALID,0.0296875,
2012-02-12, 01:15:05,VALID,1003.53,VALID,0,VALID,93.82,VALID,0.0815089,VALID,24.5582,VALID,110,VALID,0.255469,
2012-02-12, 01:16:05,VALID,1003.52,VALID,0,VALID,93.8429,VALID,0,VALID,24.5582,VALID,100,VALID,0.476563,
2012-02-12, 01:17:05,VALID,1003.55,VALID,0,VALID,93.8352,VALID,0,VALID,24.5601,VALID,99,VALID,0.133594,
2012-02-12, 01:18:05,VALID,1003.52,VALID,0,VALID,93.8429,VALID,0,VALID,24.5388,VALID,99,VALID,0.0375,
2012-02-12, 01:19:05,VALID,1003.53,VALID,0,VALID,93.8657,VALID,0,VALID,24.5388,VALID,99,VALID,0.257031,
2012-02-12, 01:20:05,VALID,1003.5,VALID,0,VALID,93.8963,VALID,0,VALID,24.5388,VALID,99,VALID,0.296484,
2012-02-12, 01:21:05,VALID,1003.46,VALID,0,VALID,93.9115,VALID,0,VALID,24.5388,VALID,62,VALID,0.430078,
2012-02-12, 01:22:05,VALID,1003.45,VALID,0,VALID,93.9268,VALID,0,VALID,24.5388,VALID,35,VALID,0.640234,
2012-02-12, 01:23:05,VALID,1003.43,VALID,0,VALID,93.8657,VALID,0.0815089,VALID,24.5582,VALID,343,VALID,0.527734,
2012-02-12, 01:24:05,VALID,1003.43,VALID,0,VALID,93.9191,VALID,0,VALID,24.5777,VALID,345,VALID,0.487891,
2012-02-12, 01:25:05,VALID,1003.44,VALID,0,VALID,93.9344,VALID,0.0815089,VALID,24.5972,VALID,345,VALID,0.546484,
2012-02-12, 01:26:05,VALID,1003.47,VALID,0,VALID,93.8657,VALID,0.0815089,VALID,24.5972,VALID,345,VALID,0.604688,
2012-02-12, 01:27:05,VALID,1003.48,VALID,0,VALID,93.8581,VALID,0,VALID,24.599,VALID,345,VALID,0.457031,
2012-02-12, 01:28:05,VALID,1003.47,VALID,0,VALID,93.8581,VALID,0,VALID,24.5972,VALID,345,VALID,0.467187,
2012-02-12, 01:29:05,VALID,1003.46,VALID,0,VALID,93.82,VALID,0,VALID,24.5972,VALID,345,VALID,0.26875,
2012-02-12, 01:30:05,VALID,1003.47,VALID,0,VALID,93.7742,VALID,0.0815089,VALID,24.5777,VALID,345,VALID,0.563281,
2012-02-12, 01:31:05,VALID,1003.44,VALID,0,VALID,93.7437,VALID,0,VALID,24.5777,VALID,345,VALID,0.508594,
2012-02-12, 01:32:05,VALID,1003.43,VALID,0,VALID,93.7589,VALID,0,VALID,24.5777,VALID,345,VALID,0.30625,
2012-02-12, 01:33:05,VALID,1003.38,VALID,0,VALID,93.6826,VALID,0,VALID,24.5582,VALID,345,VALID,0.4375,
2012-02-12, 01:34:05,VALID,1003.34,VALID,0,VALID,93.7055,VALID,0,VALID,24.5388,VALID,345,VALID,0.4375,
2012-02-12, 01:35:05,VALID,1003.33,VALID,0,VALID,93.7437,VALID,0,VALID,24.5388,VALID,345,VALID,0.564844,
2012-02-12, 01:36:05,VALID,1003.3,VALID,0,VALID,93.7589,VALID,0,VALID,24.5582,VALID,346,VALID,0.391797,
2012-02-12, 01:37:05,VALID,1003.27,VALID,0,VALID,93.7055,VALID,0,VALID,24.5388,VALID,346,VALID,0.514453,
2012-02-12, 01:38:05,VALID,1003.3,VALID,0,VALID,93.7055,VALID,0,VALID,24.5388,VALID,346,VALID,0.394531,
2012-02-12, 01:39:05,VALID,1003.26,VALID,0,VALID,93.7818,VALID,0,VALID,24.599,VALID,346,VALID,0.421094,
2012-02-12, 01:40:05,VALID,1003.25,VALID,0,VALID,93.7513,VALID,0,VALID,24.5564,VALID,346,VALID,0.441016,
2012-02-12, 01:41:05,VALID,1003.24,VALID,0,VALID,93.7361,VALID,0,VALID,24.5777,VALID,346,VALID,0.470703,
2012-02-12, 01:42:05,VALID,1003.27,VALID,0,VALID,93.7132,VALID,0,VALID,24.599,VALID,346,VALID,0.476172,
2012-02-12, 01:43:05,VALID,1003.26,VALID,0,VALID,93.6979,VALID,0,VALID,24.5777,VALID,346,VALID,0.336719,
2012-02-12, 01:44:05,VALID,1003.27,VALID,0,VALID,93.6521,VALID,0,VALID,24.5796,VALID,346,VALID,0.458203,
2012-02-12, 01:45:05,VALID,1003.23,VALID,0,VALID,93.6064,VALID,0,VALID,24.5796,VALID,346,VALID,0.416406,
2012-02-12, 01:46:05,VALID,1003.23,VALID,0,VALID,93.5606,VALID,0,VALID,24.5193,VALID,346,VALID,0.286719,
2012-02-12, 01:47:05,VALID,1003.21,VALID,0,VALID,93.5835,VALID,0,VALID,24.4998,VALID,346,VALID,0.20625,
2012-02-12, 01:48:05,VALID,1003.2,VALID,0,VALID,93.5453,VALID,0,VALID,24.4998,VALID,346,VALID,0.342187,
2012-02-12, 01:49:05,VALID,1003.16,VALID,0,VALID,93.4919,VALID,0,VALID,24.5406,VALID,11,VALID,0.525,
2012-02-12, 01:50:05,VALID,1003.18,VALID,0,VALID,93.5682,VALID,0,VALID,24.5582,VALID,7,VALID,0.492578,
2012-02-12, 01:51:05,VALID,1003.19,VALID,0,VALID,93.5301,VALID,0,VALID,24.599,VALID,7,VALID,0.0875,
2012-02-12, 01:52:05,VALID,1003.17,VALID,0,VALID,93.4614,VALID,0,VALID,24.6166,VALID,7,VALID,0.170703,
2012-02-12, 01:53:05,VALID,1003.2,VALID,0,VALID,93.4004,VALID,0,VALID,24.638,VALID,7,VALID,0,
2012-02-12, 01:54:05,VALID,1003.2,VALID,0,VALID,93.3394,VALID,0,VALID,24.6574,VALID,7,VALID,0,
2012-02-12, 01:55:05,VALID,1003.19,VALID,0,VALID,93.3012,VALID,0,VALID,24.6556,VALID,7,VALID,0.0046875,
2012-02-12, 01:56:05,VALID,1003.2,VALID,0,VALID,93.2325,VALID,0,VALID,24.6556,VALID,7,VALID,0.223828,
2012-02-12, 01:57:05,VALID,1003.16,VALID,0,VALID,93.2325,VALID,0,VALID,24.675,VALID,7,VALID,0.111328,
2012-02-12, 01:58:05,VALID,1003.17,VALID,0,VALID,93.0647,VALID,0,VALID,24.6964,VALID,7,VALID,0,
2012-02-12, 01:59:05,VALID,1003.13,VALID,0,VALID,92.935,VALID,0,VALID,24.6964,VALID,7,VALID,0,
2012-02-12, 02:00:05,VALID,1003.13,VALID,0,VALID,92.8969,VALID,0,VALID,24.6964,VALID,7,VALID,0,
2012-02-12, 02:01:05,VALID,1003.09,VALID,0,VALID,92.7748,VALID,0,VALID,24.714,VALID,7,VALID,0,
2012-02-12, 02:02:05,VALID,1003.1,VALID,0,VALID,92.7596,VALID,0,VALID,24.7335,VALID,7,VALID,0.267188,
2012-02-12, 02:03:05,VALID,1003.08,VALID,0,VALID,92.7748,VALID,0,VALID,24.7529,VALID,7,VALID,0.0292969,
2012-02-12, 02:04:05,VALID,1003.09,VALID,0,VALID,92.6909,VALID,0,VALID,24.8132,VALID,7,VALID,0.028125,
2012-02-12, 02:05:05,VALID,1003.05,VALID,0,VALID,92.5841,VALID,0,VALID,24.7919,VALID,7,VALID,0.537891,
2012-02-12, 02:06:05,VALID,1003.05,VALID,0,VALID,92.5002,VALID,0,VALID,24.7919,VALID,7,VALID,0.321484,
2012-02-12, 02:07:05,VALID,1003.04,VALID,0,VALID,92.3323,VALID,0,VALID,24.7919,VALID,7,VALID,0.403516,
2012-02-12, 02:08:05,VALID,1003.03,VALID,0,VALID,92.3323,VALID,0,VALID,24.7724,VALID,64,VALID,0.628906,
2012-02-12, 02:09:05,VALID,1003.02,VALID,0,VALID,92.546,VALID,0,VALID,24.7919,VALID,98,VALID,0.719922,
2012-02-12, 02:10:05,VALID,1003,VALID,0,VALID,92.546,VALID,0,VALID,24.7724,VALID,106,VALID,0.469922,
2012-02-12, 02:11:05,VALID,1002.97,VALID,0,VALID,92.6604,VALID,0,VALID,24.7743,VALID,106,VALID,0.5,
2012-02-12, 02:12:05,VALID,1002.94,VALID,0,VALID,92.6222,VALID,0,VALID,24.7529,VALID,119,VALID,0.713672,
2012-02-12, 02:13:05,VALID,1002.93,VALID,0,VALID,92.6299,VALID,0.0815089,VALID,24.714,VALID,159,VALID,0.535156,
2012-02-12, 02:14:05,VALID,1002.9,VALID,0,VALID,92.7443,VALID,0,VALID,24.714,VALID,156,VALID,0.697266,
2012-02-12, 02:15:05,VALID,1002.88,VALID,0,VALID,92.8969,VALID,0,VALID,24.7548,VALID,147,VALID,0.881641,
2012-02-12, 02:16:05,VALID,1002.89,VALID,0,VALID,92.8511,VALID,0,VALID,24.7335,VALID,144,VALID,0.85625,
2012-02-12, 02:17:05,VALID,1002.89,VALID,0,VALID,92.8587,VALID,0,VALID,24.7548,VALID,134,VALID,0.445703,
2012-02-12, 02:18:05,VALID,1002.9,VALID,0,VALID,92.8587,VALID,0,VALID,24.7548,VALID,126,VALID,0.00429688,
2012-02-12, 02:19:05,VALID,1002.88,VALID,0,VALID,92.8816,VALID,0,VALID,24.7335,VALID,126,VALID,0,
2012-02-12, 02:20:05,VALID,1002.89,VALID,0,VALID,92.8358,VALID,0.0815089,VALID,24.7548,VALID,126,VALID,0.122656,
2012-02-12, 02:21:05,VALID,1002.88,VALID,0,VALID,92.8206,VALID,0,VALID,24.714,VALID,126,VALID,0.186719,
2012-02-12, 02:22:05,VALID,1002.89,VALID,0,VALID,92.813,VALID,0,VALID,24.714,VALID,126,VALID,0.2875,
2012-02-12, 02:23:05,VALID,1002.92,VALID,0,VALID,92.8511,VALID,0.0815089,VALID,24.6964,VALID,126,VALID,0.295703,
2012-02-12, 02:24:05,VALID,1002.9,VALID,0,VALID,92.8664,VALID,0,VALID,24.6964,VALID,126,VALID,0.229687,
2012-02-12, 02:25:05,VALID,1002.89,VALID,0,VALID,92.8587,VALID,0,VALID,24.675,VALID,126,VALID,0.351563,
2012-02-12, 02:26:05,VALID,1002.87,VALID,0,VALID,92.8587,VALID,0,VALID,24.6769,VALID,126,VALID,0.264844,
2012-02-12, 02:27:05,VALID,1002.88,VALID,0,VALID,92.9121,VALID,0,VALID,24.6769,VALID,123,VALID,0.39375,
2012-02-12, 02:28:05,VALID,1002.85,VALID,0,VALID,92.9503,VALID,0.0815089,VALID,24.6361,VALID,122,VALID,0.155859,
2012-02-12, 02:29:05,VALID,1002.84,VALID,0,VALID,92.9198,VALID,0,VALID,24.6361,VALID,122,VALID,0.329297,
2012-02-12, 02:30:05,VALID,1002.83,VALID,0,VALID,92.8892,VALID,0,VALID,24.5972,VALID,122,VALID,0.230078,
2012-02-12, 02:31:05,VALID,1002.85,VALID,0,VALID,92.9274,VALID,0,VALID,24.6185,VALID,122,VALID,0.266797,
2012-02-12, 02:32:05,VALID,1002.83,VALID,0,VALID,92.9579,VALID,0,VALID,24.5972,VALID,122,VALID,0.231641,
2012-02-12, 02:33:05,VALID,1002.8,VALID,0,VALID,93.0113,VALID,0,VALID,24.599,VALID,122,VALID,0.323828,
2012-02-12, 02:34:05,VALID,1002.81,VALID,0,VALID,93.0113,VALID,0,VALID,24.5777,VALID,122,VALID,0.378516,
2012-02-12, 02:35:05,VALID,1002.82,VALID,0,VALID,93.0113,VALID,0,VALID,24.5796,VALID,122,VALID,0.310547,
2012-02-12, 02:36:05,VALID,1002.81,VALID,0,VALID,93.0342,VALID,0,VALID,24.5796,VALID,122,VALID,0.314063,
2012-02-12, 02:37:05,VALID,1002.84,VALID,0,VALID,93.08,VALID,0,VALID,24.5796,VALID,122,VALID,0.179688,
2012-02-12, 02:38:05,VALID,1002.81,VALID,0,VALID,93.1029,VALID,0,VALID,24.5582,VALID,122,VALID,0.201562,
2012-02-12, 02:39:05,VALID,1002.83,VALID,0,VALID,93.0876,VALID,0,VALID,24.5796,VALID,122,VALID,0.3,
2012-02-12, 02:40:05,VALID,1002.81,VALID,0,VALID,93.1181,VALID,0,VALID,24.5796,VALID,119,VALID,0.330859,
2012-02-12, 02:41:05,VALID,1002.81,VALID,0,VALID,93.0342,VALID,0,VALID,24.5388,VALID,79,VALID,0.420703,
2012-02-12, 02:42:05,VALID,1002.8,VALID,0,VALID,93.1334,VALID,0,VALID,24.5796,VALID,78,VALID,0.359375,
2012-02-12, 02:43:05,VALID,1002.81,VALID,0,VALID,93.1105,VALID,0,VALID,24.5601,VALID,78,VALID,0.3375,
2012-02-12, 02:44:05,VALID,1002.82,VALID,0,VALID,93.1105,VALID,0,VALID,24.5601,VALID,78,VALID,0.221875,
2012-02-12, 02:45:05,VALID,1002.84,VALID,0,VALID,93.1486,VALID,0,VALID,24.5388,VALID,78,VALID,0.00195313,
2012-02-12, 02:46:05,VALID,1002.85,VALID,0,VALID,93.1563,VALID,0,VALID,24.5388,VALID,78,VALID,0,
2012-02-12, 02:47:05,VALID,1002.85,VALID,0,VALID,93.1868,VALID,0,VALID,24.5406,VALID,78,VALID,0,
2012-02-12, 02:48:05,VALID,1002.86,VALID,0,VALID,93.2173,VALID,0,VALID,24.5193,VALID,78,VALID,0,
2012-02-12, 02:49:05,VALID,1002.88,VALID,0,VALID,93.1868,VALID,0,VALID,24.4998,VALID,78,VALID,0.284766,
2012-02-12, 02:50:05,VALID,1002.86,VALID,0,VALID,93.2097,VALID,0,VALID,24.5017,VALID,78,VALID,0.285937,
2012-02-12, 02:51:05,VALID,1002.87,VALID,0,VALID,93.2554,VALID,0,VALID,24.4822,VALID,79,VALID,0.241797,
2012-02-12, 02:52:05,VALID,1002.86,VALID,0,VALID,93.3165,VALID,0,VALID,24.4822,VALID,78,VALID,0,
2012-02-12, 02:53:05,VALID,1002.88,VALID,0,VALID,93.3546,VALID,0,VALID,24.4822,VALID,78,VALID,0,
2012-02-12, 02:54:05,VALID,1002.87,VALID,0,VALID,93.3165,VALID,0,VALID,24.4628,VALID,78,VALID,0.233203,
2012-02-12, 02:55:05,VALID,1002.88,VALID,0,VALID,93.3317,VALID,0,VALID,24.4628,VALID,78,VALID,0.457422,
2012-02-12, 02:56:05,VALID,1002.88,VALID,0,VALID,93.3546,VALID,0,VALID,24.422,VALID,78,VALID,0.0800781,
2012-02-12, 02:57:05,VALID,1002.88,VALID,0,VALID,93.3851,VALID,0,VALID,24.4025,VALID,78,VALID,0.291797,
2012-02-12, 02:58:05,VALID,1002.87,VALID,0,VALID,93.4309,VALID,0,VALID,24.4433,VALID,78,VALID,0.215625,
2012-02-12, 02:59:05,VALID,1002.86,VALID,0,VALID,93.4767,VALID,0,VALID,24.422,VALID,78,VALID,0.160547,
2012-02-12, 03:00:05,VALID,1002.87,VALID,0,VALID,93.5224,VALID,0,VALID,24.422,VALID,78,VALID,0.182422,
2012-02-12, 03:01:05,VALID,1002.84,VALID,0,VALID,93.5148,VALID,0,VALID,24.4238,VALID,79,VALID,0.538281,
2012-02-12, 03:02:05,VALID,1002.85,VALID,0,VALID,93.5377,VALID,0,VALID,24.4025,VALID,79,VALID,0.420312,
2012-02-12, 03:03:05,VALID,1002.88,VALID,0,VALID,93.5453,VALID,0,VALID,24.4238,VALID,79,VALID,0.417188,
2012-02-12, 03:04:05,VALID,1002.87,VALID,0,VALID,93.5301,VALID,0,VALID,24.3849,VALID,80,VALID,0.557813,
2012-02-12, 03:05:05,VALID,1002.87,VALID,0,VALID,93.553,VALID,0,VALID,24.3849,VALID,80,VALID,0.420312,
2012-02-12, 03:06:05,VALID,1002.88,VALID,0,VALID,93.5987,VALID,0,VALID,24.3636,VALID,81,VALID,0.460938,
2012-02-12, 03:07:05,VALID,1002.9,VALID,0,VALID,93.6292,VALID,0,VALID,24.4043,VALID,81,VALID,0.0996094,
2012-02-12, 03:08:05,VALID,1002.88,VALID,0,VALID,93.614,VALID,0,VALID,24.4043,VALID,81,VALID,0.144141,
2012-02-12, 03:09:05,VALID,1002.88,VALID,0,VALID,93.614,VALID,0,VALID,24.4043,VALID,81,VALID,0.0640625,
2012-02-12, 03:10:05,VALID,1002.86,VALID,0,VALID,93.5987,VALID,0,VALID,24.4025,VALID,81,VALID,0.153125,
2012-02-12, 03:11:05,VALID,1002.83,VALID,0,VALID,93.5758,VALID,0,VALID,24.4043,VALID,81,VALID,0.266797,
2012-02-12, 03:12:05,VALID,1002.84,VALID,0,VALID,93.5758,VALID,0.0815089,VALID,24.383,VALID,81,VALID,0.398438,
2012-02-12, 03:13:04,VALID,1002.81,VALID,0,VALID,93.5606,VALID,0,VALID,24.383,VALID,69,VALID,0.550781,
2012-02-12, 03:14:04,VALID,1002.82,VALID,0,VALID,93.614,VALID,0,VALID,24.4025,VALID,33,VALID,0.471484,
2012-02-12, 03:15:04,VALID,1002.78,VALID,0,VALID,93.5606,VALID,0,VALID,24.383,VALID,33,VALID,0.317969,
2012-02-12, 03:16:04,VALID,1002.75,VALID,0,VALID,93.553,VALID,0,VALID,24.383,VALID,33,VALID,0.0277344,
2012-02-12, 03:17:04,VALID,1002.73,VALID,0,VALID,93.5911,VALID,0,VALID,24.4043,VALID,33,VALID,0,
2012-02-12, 03:18:04,VALID,1002.72,VALID,0,VALID,93.5911,VALID,0,VALID,24.4043,VALID,33,VALID,0.248828,
2012-02-12, 03:19:04,VALID,1002.7,VALID,0,VALID,93.6064,VALID,0,VALID,24.383,VALID,33,VALID,0.235547,
2012-02-12, 03:20:04,VALID,1002.71,VALID,0,VALID,93.6445,VALID,0,VALID,24.383,VALID,33,VALID,0.283984,
2012-02-12, 03:21:04,VALID,1002.72,VALID,0,VALID,93.6445,VALID,0,VALID,24.4043,VALID,33,VALID,0.188281,
2012-02-12, 03:22:04,VALID,1002.69,VALID,0,VALID,93.6292,VALID,0,VALID,24.4043,VALID,33,VALID,0.325781,
2012-02-12, 03:23:04,VALID,1002.71,VALID,0,VALID,93.614,VALID,0,VALID,24.3654,VALID,33,VALID,0.221094,
2012-02-12, 03:24:04,VALID,1002.71,VALID,0,VALID,93.6369,VALID,0,VALID,24.3441,VALID,33,VALID,0.0769531,
2012-02-12, 03:25:04,VALID,1002.73,VALID,0,VALID,93.6521,VALID,0,VALID,24.3636,VALID,33,VALID,0,
2012-02-12, 03:26:04,VALID,1002.74,VALID,0,VALID,93.6521,VALID,0.0815089,VALID,24.3441,VALID,33,VALID,0,
2012-02-12, 03:27:04,VALID,1002.72,VALID,0,VALID,93.6979,VALID,0,VALID,24.3459,VALID,33,VALID,0,
2012-02-12, 03:28:04,VALID,1002.72,VALID,0,VALID,93.6979,VALID,0,VALID,24.3441,VALID,33,VALID,0,
2012-02-12, 03:29:04,VALID,1002.74,VALID,0,VALID,93.6826,VALID,0,VALID,24.3246,VALID,33,VALID,0.254297,
2012-02-12, 03:30:04,VALID,1002.73,VALID,0,VALID,93.7513,VALID,0,VALID,24.3246,VALID,33,VALID,0.416016,
2012-02-12, 03:31:04,VALID,1002.74,VALID,0,VALID,93.7818,VALID,0.0815089,VALID,24.3459,VALID,33,VALID,0.362109,
2012-02-12, 03:32:04,VALID,1002.76,VALID,0,VALID,93.7971,VALID,0.0815089,VALID,24.3246,VALID,33,VALID,0.319922,
2012-02-12, 03:33:04,VALID,1002.8,VALID,0,VALID,93.8352,VALID,0.0815089,VALID,24.3654,VALID,33,VALID,0.0105469,
2012-02-12, 03:34:04,VALID,1002.81,VALID,0,VALID,93.8429,VALID,0,VALID,24.3246,VALID,33,VALID,0.0347656,
2012-02-12, 03:35:04,VALID,1002.83,VALID,0,VALID,93.881,VALID,0,VALID,24.3459,VALID,33,VALID,0.217969,
2012-02-12, 03:36:04,VALID,1002.83,VALID,0,VALID,93.8886,VALID,0.0815089,VALID,24.3246,VALID,33,VALID,0.222656,
2012-02-12, 03:37:04,VALID,1002.82,VALID,0,VALID,93.9268,VALID,0.0815089,VALID,24.3052,VALID,33,VALID,0,
2012-02-12, 03:38:04,VALID,1002.82,VALID,0,VALID,93.9573,VALID,0,VALID,24.3246,VALID,33,VALID,0,
2012-02-12, 03:39:04,VALID,1002.84,VALID,0,VALID,93.9725,VALID,0,VALID,24.3441,VALID,33,VALID,0.3625,
2012-02-12, 03:40:04,VALID,1002.84,VALID,0,VALID,93.9802,VALID,0,VALID,24.3052,VALID,33,VALID,0.223047,
2012-02-12, 03:41:04,VALID,1002.86,VALID,0,VALID,94.0107,VALID,0,VALID,24.3459,VALID,33,VALID,0.212891,
2012-02-12, 03:42:04,VALID,1002.89,VALID,0,VALID,94.0488,VALID,0,VALID,24.3459,VALID,33,VALID,0.289844,
2012-02-12, 03:43:04,VALID,1002.89,VALID,0,VALID,94.0641,VALID,0.0815089,VALID,24.3654,VALID,33,VALID,0.260156,
2012-02-12, 03:44:04,VALID,1002.97,VALID,0,VALID,94.0641,VALID,0,VALID,24.3246,VALID,33,VALID,0.289844,
2012-02-12, 03:45:04,VALID,1002.99,VALID,0,VALID,94.0641,VALID,0,VALID,24.3441,VALID,33,VALID,0.215625,
2012-02-12, 03:46:04,VALID,1003.01,VALID,0,VALID,94.0794,VALID,0.0815089,VALID,24.3654,VALID,33,VALID,0,
2012-02-12, 03:47:04,VALID,1003.02,VALID,0,VALID,94.1099,VALID,0.0815089,VALID,24.3246,VALID,33,VALID,0,